Flag for Germany Weather past 2 weeks in Senftenberg, Brandenburg, Germany

Now
37 °F

Passing clouds.


Feels Like: 34 °F
Forecast: 35 / 43 °F
Wind: 3 mph from Southwest

Location: Cottbus

Current Time: Mar 5, 2015 at 12:08:20 AM

Latest Report: Mar 4, 2015 at 11:00 PM


Visibility: 17 mi

Pressure: 30.24 "Hg

Humidity: 77%

Dew point: 30 °F

Location of SenftenbergLocation

Historic Weather in Senftenberg — Graph

°F

Senftenberg temperature yesterday

Maximum temperature yesterday: 45 °F (at 1:00 PM)
Minimum temperature yesterday: 35 °F (at 7:00 AM)
Average temperature yesterday: 40 °F

Past Weeks' High & Low Weather Summary

 TemperatureHumidityPressure
High52 °F (Feb 21, 3:00 PM)100% (Feb 18, 3:00 AM)30.75 "Hg (Feb 18, 3:00 AM)
Low23 °F (Feb 26, 7:00 AM)42% (Feb 26, 3:00 PM)29.41 "Hg (Feb 21, 3:00 PM)
Average39 °F76%29.96 "Hg
* Reported Feb 17 10:00 PM — Mar 4 10:00 PM, Senftenberg, Weather by CustomWeather, © 2015

Note: Actual official high and low records may vary slightly from our data, if they occured in-between our weather recording intervals... More about our weather records

Advertising

Senftenberg weather history for previous 24 hours

 ConditionsComfort  
Time TempWeatherWind HumidityBarometerVisibility
10:00 PM
Wed, Mar 4
38 °FPassing clouds.5 mph75%30.23 "Hg19 mi
9:00 PM39 °FOvercast.5 mph71%30.22 "Hg22 mi
8:00 PM39 °FPassing clouds.5 mph70%30.22 "Hg22 mi
7:00 PM41 °FOvercast.5 mph65%30.21 "Hg22 mi
6:00 PM42 °FOvercast.6 mph62%30.20 "Hg22 mi
5:00 PM42 °FOvercast.7 mph61%30.19 "Hg22 mi
4:00 PM43 °FOvercast.6 mph59%30.18 "Hg22 mi
3:00 PM43 °FOvercast.7 mph59%30.17 "Hg19 mi
2:00 PM44 °FOvercast.7 mph56%30.16 "Hg25 mi
1:00 PM45 °FScattered clouds.6 mph52%30.16 "Hg28 mi
12:00 PM43 °FPartly sunny.8 mph55%30.16 "Hg31 mi
11:00 AM42 °FPassing clouds.8 mph63%30.14 "Hg25 mi
10:00 AM41 °FPassing clouds.6 mph70%30.14 "Hg19 mi
9:00 AM39 °FSunny.6 mph77%30.12 "Hg14 mi
8:00 AM36 °FOvercast.5 mph81%30.09 "Hg19 mi
7:00 AM35 °FOvercast.5 mph86%30.07 "Hg13 mi
6:00 AM35 °FOvercast.5 mph86%30.05 "Hg11 mi
5:00 AM36 °FPassing clouds.6 mph86%30.03 "Hg12 mi
4:00 AM36 °FPassing clouds.5 mph86%30.01 "Hg11 mi
3:00 AM38 °FPassing clouds.5 mph87%30.00 "Hg12 mi
2:00 AM39 °FOvercast.6 mph91%29.98 "Hg19 mi
1:00 AM39 °FDrizzle. Low clouds.6 mph91%29.96 "Hg13 mi
12:00 AM40 °FLight rain. Low clouds.6 mph90%29.96 "Hg5 mi
Weather by CustomWeather, © 2015

See weather overviewHow to use our weather pages